Time,TemperatureF,DewpointF,PressureIn,WindDirection,WindDirectionDegrees,WindSpeedMPH,WindSpeedGustMPH,Humidity,HourlyPrecipIn,Conditions,Clouds,dailyrainin,SoftwareType,DateUTC
2013-05-01 00:01:00,49.9,26.6,30.26,ENE,77,1.0,3.0,40,0.00,,CLR,0.00,VWS V14.00,2013-05-01 04:01:00,
2013-05-01 00:02:00,49.9,27.1,30.26,SE,128,1.0,3.0,41,0.00,,CLR,0.00,VWS V14.00,2013-05-01 04:02:00,
2013-05-01 00:07:00,49.9,27.1,30.26,East,101,0.0,2.0,41,0.00,,CLR,0.00,VWS V14.00,2013-05-01 04:07:00,
2013-05-01 00:12:00,49.8,27.1,30.26,East,97,0.0,1.0,41,0.00,,CLR,0.00,VWS V14.00,2013-05-01 04:12:00,
2013-05-01 00:17:00,49.8,27.1,30.26,East,97,0.0,0.0,41,0.00,,CLR,0.00,VWS V14.00,2013-05-01 04:17:00,
2013-05-01 00:22:00,49.6,27.5,30.26,East,97,0.0,0.0,42,0.00,,CLR,0.00,VWS V14.00,2013-05-01 04:22:00,
2013-05-01 00:27:00,49.5,28.0,30.26,East,97,0.0,0.0,43,0.00,,CLR,0.00,VWS V14.00,2013-05-01 04:27:00,
2013-05-01 00:32:00,49.4,27.9,30.27,East,97,0.0,0.0,43,0.00,,CLR,0.00,VWS V14.00,2013-05-01 04:32:00,
2013-05-01 00:37:00,49.1,28.7,30.27,East,97,0.0,0.0,45,0.00,,CLR,0.00,VWS V14.00,2013-05-01 04:37:00,
2013-05-01 00:42:00,48.8,27.9,30.27,East,97,0.0,0.0,44,0.00,,CLR,0.00,VWS V14.00,2013-05-01 04:42:00,
2013-05-01 00:47:00,48.5,28.1,30.27,East,97,1.0,1.0,45,0.00,,CLR,0.00,VWS V14.00,2013-05-01 04:47:00,
2013-05-01 00:52:00,48.2,28.4,30.27,East,97,0.0,0.0,46,0.00,,CLR,0.00,VWS V14.00,2013-05-01 04:52:00,
2013-05-01 00:57:00,47.9,28.7,30.27,East,97,0.0,0.0,47,0.00,,CLR,0.00,VWS V14.00,2013-05-01 04:57:00,
2013-05-01 01:02:00,47.6,28.4,30.27,East,97,0.0,0.0,47,0.00,,CLR,0.00,VWS V14.00,2013-05-01 05:02:00,
2013-05-01 01:07:00,47.3,28.6,30.27,East,97,0.0,1.0,48,0.00,,CLR,0.00,VWS V14.00,2013-05-01 05:07:00,
2013-05-01 01:12:00,47.1,28.9,30.27,East,97,1.0,1.0,49,0.00,,CLR,0.00,VWS V14.00,2013-05-01 05:12:00,
2013-05-01 01:17:00,46.8,28.2,30.28,East,97,0.0,0.0,48,0.00,,CLR,0.00,VWS V14.00,2013-05-01 05:17:00,
2013-05-01 01:22:00,46.5,28.4,30.28,East,97,0.0,0.0,49,0.00,,CLR,0.00,VWS V14.00,2013-05-01 05:22:00,
2013-05-01 01:27:00,46.4,28.3,30.28,East,97,0.0,2.0,49,0.00,,CLR,0.00,VWS V14.00,2013-05-01 05:27:00,
2013-05-01 01:32:00,46.2,28.6,30.29,East,97,0.0,2.0,50,0.00,,CLR,0.00,VWS V14.00,2013-05-01 05:32:00,
2013-05-01 01:37:00,46.0,28.9,30.29,East,97,0.0,1.0,51,0.00,,CLR,0.00,VWS V14.00,2013-05-01 05:37:00,
2013-05-01 01:42:00,45.8,28.7,30.29,East,97,0.0,2.0,51,0.00,,CLR,0.00,VWS V14.00,2013-05-01 05:42:00,
2013-05-01 01:47:00,45.7,29.1,30.28,East,97,0.0,1.0,52,0.00,,CLR,0.00,VWS V14.00,2013-05-01 05:47:00,
2013-05-01 01:52:00,45.4,28.8,30.28,East,97,0.0,1.0,52,0.00,,CLR,0.00,VWS V14.00,2013-05-01 05:52:00,
2013-05-01 01:57:00,45.2,28.2,30.28,East,97,0.0,1.0,51,0.00,,CLR,0.00,VWS V14.00,2013-05-01 05:57:00,
2013-05-01 02:02:00,45.1,28.1,30.28,East,97,0.0,2.0,51,0.00,,CLR,0.00,VWS V14.00,2013-05-01 06:02:00,
2013-05-01 02:07:00,44.9,28.4,30.28,East,97,2.0,2.0,52,0.00,,CLR,0.00,VWS V14.00,2013-05-01 06:07:00,
2013-05-01 02:12:00,44.8,28.3,30.28,East,97,1.0,2.0,52,0.00,,CLR,0.00,VWS V14.00,2013-05-01 06:12:00,
2013-05-01 02:17:00,44.8,28.3,30.28,ENE,65,2.0,2.0,52,0.00,,CLR,0.00,VWS V14.00,2013-05-01 06:17:00,
2013-05-01 02:22:00,44.6,28.5,30.28,ENE,65,0.0,2.0,53,0.00,,CLR,0.00,VWS V14.00,2013-05-01 06:22:00,
2013-05-01 02:27:00,44.6,28.5,30.28,ENE,65,1.0,2.0,53,0.00,,CLR,0.00,VWS V14.00,2013-05-01 06:27:00,
2013-05-01 02:32:00,44.5,28.5,30.28,ENE,65,2.0,2.0,53,0.00,,CLR,0.00,VWS V14.00,2013-05-01 06:32:00,
2013-05-01 02:37:00,44.5,28.5,30.28,ENE,65,0.0,1.0,53,0.00,,CLR,0.00,VWS V14.00,2013-05-01 06:37:00,
2013-05-01 02:42:00,44.3,28.3,30.28,ENE,65,0.0,1.0,53,0.00,,CLR,0.00,VWS V14.00,2013-05-01 06:42:00,
2013-05-01 02:47:00,44.3,28.3,30.29,ENE,65,1.0,2.0,53,0.00,,CLR,0.00,VWS V14.00,2013-05-01 06:47:00,
2013-05-01 02:52:00,44.3,28.3,30.29,ENE,69,1.0,1.0,53,0.00,,CLR,0.00,VWS V14.00,2013-05-01 06:52:00,
2013-05-01 02:57:00,44.3,28.3,30.29,ENE,69,1.0,1.0,53,0.00,,CLR,0.00,VWS V14.00,2013-05-01 06:57:00,
2013-05-01 03:02:00,44.3,28.3,30.29,ENE,69,0.0,1.0,53,0.00,,CLR,0.00,VWS V14.00,2013-05-01 07:02:00,
2013-05-01 03:07:00,44.3,28.7,30.29,ENE,69,0.0,1.0,54,0.00,,CLR,0.00,VWS V14.00,2013-05-01 07:07:00,
2013-05-01 03:12:00,44.3,28.3,30.29,ENE,69,2.0,2.0,53,0.00,,CLR,0.00,VWS V14.00,2013-05-01 07:12:00,
2013-05-01 03:17:00,44.3,28.7,30.29,ENE,69,0.0,0.0,54,0.00,,CLR,0.00,VWS V14.00,2013-05-01 07:17:00,
2013-05-01 03:22:00,44.2,29.1,30.29,ENE,69,0.0,0.0,55,0.00,,CLR,0.00,VWS V14.00,2013-05-01 07:22:00,
2013-05-01 03:27:00,44.2,29.1,30.29,ENE,69,0.0,0.0,55,0.00,,CLR,0.00,VWS V14.00,2013-05-01 07:27:00,
2013-05-01 03:33:00,44.1,29.0,30.30,ENE,69,0.0,0.0,55,0.00,,CLR,0.00,VWS V14.00,2013-05-01 07:33:00,
2013-05-01 03:38:00,43.9,28.8,30.30,ENE,69,0.0,0.0,55,0.00,,CLR,0.00,VWS V14.00,2013-05-01 07:38:00,
2013-05-01 03:43:00,43.6,29.0,30.30,ENE,69,0.0,0.0,56,0.00,,CLR,0.00,VWS V14.00,2013-05-01 07:43:00,
2013-05-01 03:48:00,43.5,28.9,30.30,ENE,69,0.0,0.0,56,0.00,,CLR,0.00,VWS V14.00,2013-05-01 07:48:00,
2013-05-01 03:53:00,43.2,27.7,30.30,ENE,69,0.0,0.0,54,0.00,,CLR,0.00,VWS V14.00,2013-05-01 07:53:00,
2013-05-01 03:58:00,43.1,27.1,30.30,ENE,69,0.0,0.0,53,0.00,,CLR,0.00,VWS V14.00,2013-05-01 07:58:00,
2013-05-01 04:03:00,43.1,27.1,30.30,ENE,69,0.0,0.0,53,0.00,,CLR,0.00,VWS V14.00,2013-05-01 08:03:00,
2013-05-01 04:08:00,43.1,27.1,30.30,ENE,69,0.0,0.0,53,0.00,,CLR,0.00,VWS V14.00,2013-05-01 08:08:00,
2013-05-01 04:13:00,42.9,27.4,30.30,ENE,69,0.0,0.0,54,0.00,,CLR,0.00,VWS V14.00,2013-05-01 08:13:00,
2013-05-01 04:18:00,42.9,27.4,30.31,ENE,69,0.0,0.0,54,0.00,,CLR,0.00,VWS V14.00,2013-05-01 08:18:00,
2013-05-01 04:23:00,42.8,27.8,30.31,ENE,69,1.0,1.0,55,0.00,,CLR,0.00,VWS V14.00,2013-05-01 08:23:00,
2013-05-01 04:28:00,42.5,27.9,30.31,ENE,69,1.0,1.0,56,0.00,,CLR,0.00,VWS V14.00,2013-05-01 08:28:00,
2013-05-01 04:33:00,42.3,27.7,30.31,ENE,69,0.0,0.0,56,0.00,,CLR,0.00,VWS V14.00,2013-05-01 08:33:00,
2013-05-01 04:38:00,42.2,27.6,30.31,ENE,69,0.0,0.0,56,0.00,,CLR,0.00,VWS V14.00,2013-05-01 08:38:00,
2013-05-01 04:43:00,41.9,26.9,30.31,ENE,69,0.0,0.0,55,0.00,,CLR,0.00,VWS V14.00,2013-05-01 08:43:00,
2013-05-01 04:48:00,41.8,26.8,30.31,ENE,69,0.0,0.0,55,0.00,,CLR,0.00,VWS V14.00,2013-05-01 08:48:00,
2013-05-01 04:53:00,41.6,26.6,30.31,ENE,69,0.0,0.0,55,0.00,,CLR,0.00,VWS V14.00,2013-05-01 08:53:00,
2013-05-01 04:58:00,41.5,27.0,30.31,ENE,69,2.0,2.0,56,0.00,,CLR,0.00,VWS V14.00,2013-05-01 08:58:00,
2013-05-01 05:03:00,41.3,27.2,30.32,ENE,69,0.0,1.0,57,0.00,,CLR,0.00,VWS V14.00,2013-05-01 09:03:00,
2013-05-01 05:08:00,41.1,27.0,30.32,ENE,69,1.0,1.0,57,0.00,,CLR,0.00,VWS V14.00,2013-05-01 09:08:00,
2013-05-01 05:13:00,40.8,27.2,30.32,ENE,69,0.0,1.0,58,0.00,,CLR,0.00,VWS V14.00,2013-05-01 09:13:00,
2013-05-01 05:18:00,40.6,27.0,30.32,ENE,69,1.0,1.0,58,0.00,,CLR,0.00,VWS V14.00,2013-05-01 09:18:00,
2013-05-01 05:23:00,40.6,27.0,30.32,NE,42,1.0,2.0,58,0.00,,CLR,0.00,VWS V14.00,2013-05-01 09:23:00,
2013-05-01 05:28:00,40.5,27.3,30.32,NE,42,0.0,1.0,59,0.00,,CLR,0.00,VWS V14.00,2013-05-01 09:28:00,
2013-05-01 05:33:00,40.5,27.3,30.32,NE,42,0.0,1.0,59,0.00,,CLR,0.00,VWS V14.00,2013-05-01 09:33:00,
2013-05-01 05:38:00,40.3,26.7,30.32,NE,42,0.0,0.0,58,0.00,,CLR,0.00,VWS V14.00,2013-05-01 09:38:00,
2013-05-01 05:43:00,40.3,26.3,30.32,NE,42,0.0,0.0,57,0.00,,CLR,0.00,VWS V14.00,2013-05-01 09:43:00,
2013-05-01 05:48:00,40.3,25.9,30.32,NE,42,0.0,0.0,56,0.00,,CLR,0.00,VWS V14.00,2013-05-01 09:48:00,
2013-05-01 05:53:00,40.3,26.3,30.32,NE,42,0.0,0.0,57,0.00,,CLR,0.00,VWS V14.00,2013-05-01 09:53:00,
2013-05-01 05:58:00,40.3,26.3,30.32,NE,42,0.0,0.0,57,0.00,,CLR,0.00,VWS V14.00,2013-05-01 09:58:00,
2013-05-01 06:03:00,40.2,25.8,30.32,NE,42,0.0,0.0,56,0.00,,CLR,0.00,VWS V14.00,2013-05-01 10:03:00,
2013-05-01 06:08:00,40.2,25.8,30.32,NE,42,0.0,0.0,56,0.00,,CLR,0.00,VWS V14.00,2013-05-01 10:08:00,
2013-05-01 06:13:00,40.2,26.2,30.32,NE,42,0.0,0.0,57,0.00,,CLR,0.00,VWS V14.00,2013-05-01 10:13:00,
2013-05-01 06:18:00,40.1,26.5,30.34,NE,42,0.0,0.0,58,0.00,,CLR,0.00,VWS V14.00,2013-05-01 10:18:00,
2013-05-01 06:23:00,39.9,26.3,30.34,NE,42,0.0,0.0,58,0.00,,CLR,0.00,VWS V14.00,2013-05-01 10:23:00,
2013-05-01 06:28:00,39.9,26.8,30.34,NE,42,0.0,0.0,59,0.00,,CLR,0.00,VWS V14.00,2013-05-01 10:28:00,
2013-05-01 06:33:00,39.8,27.1,30.35,NE,42,0.0,0.0,60,0.00,,CLR,0.00,VWS V14.00,2013-05-01 10:33:00,
2013-05-01 06:38:00,39.6,26.9,30.35,NE,42,0.0,0.0,60,0.00,,CLR,0.00,VWS V14.00,2013-05-01 10:38:00,
2013-05-01 06:43:00,39.6,26.9,30.35,NE,42,0.0,0.0,60,0.00,,CLR,0.00,VWS V14.00,2013-05-01 10:43:00,
2013-05-01 06:48:00,39.5,27.2,30.35,NE,42,0.0,0.0,61,0.00,,CLR,0.00,VWS V14.00,2013-05-01 10:48:00,
2013-05-01 06:53:00,39.5,27.2,30.35,NE,42,0.0,0.0,61,0.00,,CLR,0.00,VWS V14.00,2013-05-01 10:53:00,
2013-05-01 06:58:00,39.5,27.6,30.35,NE,42,0.0,1.0,62,0.00,,CLR,0.00,VWS V14.00,2013-05-01 10:58:00,
2013-05-01 07:03:00,39.5,27.6,30.36,NE,42,0.0,0.0,62,0.00,,CLR,0.00,VWS V14.00,2013-05-01 11:03:00,
2013-05-01 07:08:00,39.6,27.7,30.36,NE,42,0.0,1.0,62,0.00,,CLR,0.00,VWS V14.00,2013-05-01 11:08:00,
2013-05-01 07:13:00,39.6,27.7,30.36,NE,42,0.0,0.0,62,0.00,,CLR,0.00,VWS V14.00,2013-05-01 11:13:00,
2013-05-01 07:18:00,39.8,27.9,30.36,NE,42,0.0,0.0,62,0.00,,CLR,0.00,VWS V14.00,2013-05-01 11:18:00,
2013-05-01 07:23:00,40.1,28.1,30.36,NE,42,0.0,1.0,62,0.00,,CLR,0.00,VWS V14.00,2013-05-01 11:23:00,
2013-05-01 07:28:00,40.2,27.8,30.36,NE,42,0.0,1.0,61,0.00,,CLR,0.00,VWS V14.00,2013-05-01 11:28:00,
2013-05-01 07:33:00,40.6,28.2,30.37,NE,42,0.0,0.0,61,0.00,,CLR,0.00,VWS V14.00,2013-05-01 11:33:00,
2013-05-01 07:38:00,40.9,28.5,30.37,NE,42,0.0,0.0,61,0.00,,CLR,0.00,VWS V14.00,2013-05-01 11:38:00,
2013-05-01 07:43:00,41.2,28.8,30.37,NE,42,0.0,0.0,61,0.00,,CLR,0.00,VWS V14.00,2013-05-01 11:43:00,
2013-05-01 07:48:00,41.5,29.1,30.37,NE,42,0.0,0.0,61,0.00,,CLR,0.00,VWS V14.00,2013-05-01 11:48:00,
2013-05-01 07:53:00,41.8,29.4,30.37,NE,42,0.0,0.0,61,0.00,,CLR,0.00,VWS V14.00,2013-05-01 11:53:00,
2013-05-01 07:58:00,42.1,29.6,30.37,NE,42,0.0,1.0,61,0.00,,CLR,0.00,VWS V14.00,2013-05-01 11:58:00,
2013-05-01 08:03:00,42.5,30.0,30.37,NE,42,0.0,0.0,61,0.00,,CLR,0.00,VWS V14.00,2013-05-01 12:03:00,
2013-05-01 08:08:00,42.9,30.0,30.37,NE,42,0.0,1.0,60,0.00,,CLR,0.00,VWS V14.00,2013-05-01 12:08:00,
2013-05-01 08:13:00,43.5,30.1,30.37,NE,42,0.0,1.0,59,0.00,,CLR,0.00,VWS V14.00,2013-05-01 12:13:00,
2013-05-01 08:18:00,44.3,30.9,30.37,NE,42,0.0,1.0,59,0.00,,CLR,0.00,VWS V14.00,2013-05-01 12:18:00,
2013-05-01 08:23:00,45.2,31.7,30.37,NE,42,0.0,1.0,59,0.00,,CLR,0.00,VWS V14.00,2013-05-01 12:23:00,
2013-05-01 08:28:00,45.8,32.3,30.37,NE,42,0.0,0.0,59,0.00,,CLR,0.00,VWS V14.00,2013-05-01 12:28:00,
2013-05-01 08:33:00,46.5,32.5,30.38,NE,42,0.0,0.0,58,0.00,,CLR,0.00,VWS V14.00,2013-05-01 12:33:00,
2013-05-01 08:38:00,47.3,32.4,30.38,NE,46,0.0,0.0,56,0.00,,CLR,0.00,VWS V14.00,2013-05-01 12:38:00,
2013-05-01 08:43:00,48.0,32.2,30.38,NE,46,0.0,1.0,54,0.00,,CLR,0.00,VWS V14.00,2013-05-01 12:43:00,
2013-05-01 08:48:00,49.1,32.2,30.38,NE,46,0.0,1.0,52,0.00,,CLR,0.00,VWS V14.00,2013-05-01 12:48:00,
2013-05-01 08:53:00,50.1,32.7,30.38,NE,46,0.0,1.0,51,0.00,,CLR,0.00,VWS V14.00,2013-05-01 12:53:00,
2013-05-01 08:58:00,51.1,33.1,30.38,NE,46,1.0,1.0,50,0.00,,CLR,0.00,VWS V14.00,2013-05-01 12:58:00,
2013-05-01 09:03:00,51.9,31.2,30.37,NE,46,1.0,1.0,45,0.00,,CLR,0.00,VWS V14.00,2013-05-01 13:03:00,
2013-05-01 09:08:00,52.6,30.2,30.37,NE,46,0.0,1.0,42,0.00,,CLR,0.00,VWS V14.00,2013-05-01 13:08:00,
2013-05-01 09:13:00,53.5,29.8,30.37,WNW,300,2.0,3.0,40,0.00,,CLR,0.00,VWS V14.00,2013-05-01 13:13:00,
2013-05-01 09:18:00,54.1,30.3,30.37,WNW,300,2.0,3.0,40,0.00,,CLR,0.00,VWS V14.00,2013-05-01 13:18:00,
2013-05-01 09:23:00,54.7,30.2,30.37,West,263,1.0,1.0,39,0.00,,CLR,0.00,VWS V14.00,2013-05-01 13:23:00,
2013-05-01 09:28:00,55.3,30.8,30.37,West,263,1.0,2.0,39,0.00,,CLR,0.00,VWS V14.00,2013-05-01 13:28:00,
2013-05-01 09:33:00,55.9,30.0,30.38,SSE,161,1.0,2.0,37,0.00,,CLR,0.00,VWS V14.00,2013-05-01 13:33:00,
2013-05-01 09:38:00,56.6,31.3,30.38,SSE,161,0.0,3.0,38,0.00,,CLR,0.00,VWS V14.00,2013-05-01 13:38:00,
2013-05-01 09:43:00,57.3,30.6,30.38,SSE,161,1.0,1.0,36,0.00,,CLR,0.00,VWS V14.00,2013-05-01 13:43:00,
2013-05-01 09:48:00,58.0,30.5,30.38,SSE,161,1.0,3.0,35,0.00,,CLR,0.00,VWS V14.00,2013-05-01 13:48:00,
2013-05-01 09:53:00,59.0,30.7,30.38,ESE,108,0.0,3.0,34,0.00,,CLR,0.00,VWS V14.00,2013-05-01 13:53:00,
2013-05-01 09:58:00,60.1,32.4,30.38,ESE,108,0.0,1.0,35,0.00,,CLR,0.00,VWS V14.00,2013-05-01 13:58:00,
2013-05-01 10:03:00,60.9,29.3,30.38,NW,305,2.0,5.0,30,0.00,,CLR,0.00,VWS V14.00,2013-05-01 14:03:00,
2013-05-01 10:08:00,61.3,26.1,30.38,ESE,108,3.0,5.0,26,0.00,,CLR,0.00,VWS V14.00,2013-05-01 14:08:00,
2013-05-01 10:13:00,61.8,27.5,30.38,WSW,257,1.0,3.0,27,0.00,,CLR,0.00,VWS V14.00,2013-05-01 14:13:00,
2013-05-01 10:18:00,62.3,27.9,30.38,NNE,20,3.0,3.0,27,0.00,,CLR,0.00,VWS V14.00,2013-05-01 14:18:00,
2013-05-01 10:23:00,62.7,28.3,30.38,North,5,7.0,7.0,27,0.00,,CLR,0.00,VWS V14.00,2013-05-01 14:23:00,
2013-05-01 10:28:00,63.1,27.7,30.38,ESE,108,3.0,5.0,26,0.00,,CLR,0.00,VWS V14.00,2013-05-01 14:28:00,
2013-05-01 10:33:00,63.1,28.6,30.38,NE,46,2.0,2.0,27,0.00,,CLR,0.00,VWS V14.00,2013-05-01 14:33:00,
2013-05-01 10:38:00,63.1,27.7,30.38,ENE,78,3.0,6.0,26,0.00,,CLR,0.00,VWS V14.00,2013-05-01 14:38:00,
2013-05-01 10:43:00,63.5,28.0,30.38,NE,50,0.0,2.0,26,0.00,,CLR,0.00,VWS V14.00,2013-05-01 14:43:00,
2013-05-01 10:48:00,64.2,28.6,30.37,ENE,63,0.0,2.0,26,0.00,,CLR,0.00,VWS V14.00,2013-05-01 14:48:00,
2013-05-01 10:53:00,64.2,29.5,30.37,ENE,57,2.0,4.0,27,0.00,,CLR,0.00,VWS V14.00,2013-05-01 14:53:00,
2013-05-01 10:58:00,64.7,30.9,30.37,NE,41,3.0,5.0,28,0.00,,CLR,0.00,VWS V14.00,2013-05-01 14:58:00,
2013-05-01 11:03:00,64.3,27.8,30.37,South,173,1.0,6.0,25,0.00,,CLR,0.00,VWS V14.00,2013-05-01 15:03:00,
2013-05-01 11:08:00,64.2,27.7,30.37,NNE,19,2.0,5.0,25,0.00,,CLR,0.00,VWS V14.00,2013-05-01 15:08:00,
2013-05-01 11:13:00,64.8,31.8,30.37,East,81,2.0,5.0,29,0.00,,CLR,0.00,VWS V14.00,2013-05-01 15:13:00,
2013-05-01 11:18:00,64.8,27.2,30.37,SE,143,4.0,6.0,24,0.00,,CLR,0.00,VWS V14.00,2013-05-01 15:18:00,
2013-05-01 11:23:00,64.7,30.9,30.37,NE,53,2.0,5.0,28,0.00,,CLR,0.00,VWS V14.00,2013-05-01 15:23:00,
2013-05-01 11:28:00,65.5,29.7,30.37,NE,40,1.0,3.0,26,0.00,,CLR,0.00,VWS V14.00,2013-05-01 15:28:00,
2013-05-01 11:33:00,65.5,29.7,30.36,SE,129,0.0,1.0,26,0.00,,CLR,0.00,VWS V14.00,2013-05-01 15:33:00,
2013-05-01 11:38:00,66.0,32.9,30.36,NE,45,1.0,10.0,29,0.00,,CLR,0.00,VWS V14.00,2013-05-01 15:38:00,
2013-05-01 11:43:00,66.4,31.4,30.36,East,101,4.0,6.0,27,0.00,,CLR,0.00,VWS V14.00,2013-05-01 15:43:00,
2013-05-01 11:48:00,66.8,30.8,30.36,NNE,15,0.0,4.0,26,0.00,,CLR,0.00,VWS V14.00,2013-05-01 15:48:00,
2013-05-01 11:53:00,67.1,32.9,30.36,East,88,0.0,1.0,28,0.00,,CLR,0.00,VWS V14.00,2013-05-01 15:53:00,
2013-05-01 11:58:00,66.9,30.9,30.36,ESE,103,5.0,8.0,26,0.00,,CLR,0.00,VWS V14.00,2013-05-01 15:58:00,
2013-05-01 12:03:00,66.4,28.5,30.36,SW,234,1.0,4.0,24,0.00,,CLR,0.00,VWS V14.00,2013-05-01 16:03:00,
2013-05-01 12:08:00,66.9,29.0,30.36,SSE,150,2.0,6.0,24,0.00,,CLR,0.00,VWS V14.00,2013-05-01 16:08:00,
2013-05-01 12:13:00,66.8,27.8,30.36,ENE,72,1.0,3.0,23,0.00,,CLR,0.00,VWS V14.00,2013-05-01 16:13:00,
2013-05-01 12:18:00,67.4,32.3,30.36,NNE,26,1.0,1.0,27,0.00,,CLR,0.00,VWS V14.00,2013-05-01 16:18:00,
2013-05-01 12:23:00,67.8,30.7,30.36,SW,231,3.0,5.0,25,0.00,,CLR,0.00,VWS V14.00,2013-05-01 16:23:00,
2013-05-01 12:28:00,67.4,33.2,30.36,SE,144,5.0,6.0,28,0.00,,CLR,0.00,VWS V14.00,2013-05-01 16:28:00,
2013-05-01 12:33:00,67.6,33.4,30.35,NE,42,3.0,4.0,28,0.00,,CLR,0.00,VWS V14.00,2013-05-01 16:33:00,
2013-05-01 12:38:00,68.1,30.0,30.35,South,186,2.0,10.0,24,0.00,,CLR,0.00,VWS V14.00,2013-05-01 16:38:00,
2013-05-01 12:43:00,67.9,30.8,30.35,SE,141,3.0,5.0,25,0.00,,CLR,0.00,VWS V14.00,2013-05-01 16:43:00,
2013-05-01 12:48:00,67.6,29.6,30.35,ESE,123,2.0,5.0,24,0.00,,CLR,0.00,VWS V14.00,2013-05-01 16:48:00,
2013-05-01 12:53:00,67.8,30.7,30.35,ESE,104,0.0,1.0,25,0.00,,CLR,0.00,VWS V14.00,2013-05-01 16:53:00,
2013-05-01 12:58:00,68.4,35.8,30.35,East,88,0.0,3.0,30,0.00,,CLR,0.00,VWS V14.00,2013-05-01 16:58:00,
2013-05-01 13:03:00,68.6,33.3,30.35,ENE,62,0.0,7.0,27,0.00,,CLR,0.00,VWS V14.00,2013-05-01 17:03:00,
2013-05-01 13:08:00,68.1,32.0,30.35,SSE,162,2.0,4.0,26,0.00,,CLR,0.00,VWS V14.00,2013-05-01 17:08:00,
2013-05-01 13:13:00,68.4,32.2,30.35,East,92,5.0,10.0,26,0.00,,CLR,0.00,VWS V14.00,2013-05-01 17:13:00,
2013-05-01 13:19:00,68.1,30.0,30.35,SE,142,2.0,4.0,24,0.00,,CLR,0.00,VWS V14.00,2013-05-01 17:19:00,
2013-05-01 13:24:00,68.4,32.2,30.35,ESE,119,2.0,3.0,26,0.00,,CLR,0.00,VWS V14.00,2013-05-01 17:24:00,
2013-05-01 13:29:00,68.9,32.6,30.35,NNE,12,4.0,5.0,26,0.00,,CLR,0.00,VWS V14.00,2013-05-01 17:29:00,
2013-05-01 13:34:00,68.9,30.6,30.34,SE,136,1.0,4.0,24,0.00,,CLR,0.00,VWS V14.00,2013-05-01 17:34:00,
2013-05-01 13:39:00,69.1,34.7,30.34,NE,48,0.0,3.0,28,0.00,,CLR,0.00,VWS V14.00,2013-05-01 17:39:00,
2013-05-01 13:44:00,70.1,34.6,30.34,North,11,2.0,4.0,27,0.00,,CLR,0.00,VWS V14.00,2013-05-01 17:44:00,
2013-05-01 13:49:00,70.1,36.4,30.34,East,88,0.0,2.0,29,0.00,,CLR,0.00,VWS V14.00,2013-05-01 17:49:00,
2013-05-01 13:54:00,70.3,34.8,30.34,NE,36,3.0,5.0,27,0.00,,CLR,0.00,VWS V14.00,2013-05-01 17:54:00,
2013-05-01 13:59:00,70.1,32.7,30.34,East,84,3.0,4.0,25,0.00,,CLR,0.00,VWS V14.00,2013-05-01 17:59:00,
2013-05-01 14:04:00,70.1,35.5,30.34,ENE,73,1.0,2.0,28,0.00,,CLR,0.00,VWS V14.00,2013-05-01 18:04:00,
2013-05-01 14:09:00,70.9,36.2,30.34,NNE,29,3.0,5.0,28,0.00,,CLR,0.00,VWS V14.00,2013-05-01 18:09:00,
2013-05-01 14:14:00,70.8,34.2,30.34,ESE,109,2.0,5.0,26,0.00,,CLR,0.00,VWS V14.00,2013-05-01 18:14:00,
2013-05-01 14:19:00,70.3,35.7,30.34,SE,131,2.0,4.0,28,0.00,,CLR,0.00,VWS V14.00,2013-05-01 18:19:00,
2013-05-01 14:24:00,70.1,35.5,30.34,SE,128,2.0,3.0,28,0.00,,CLR,0.00,VWS V14.00,2013-05-01 18:24:00,
2013-05-01 14:29:00,70.4,34.9,30.34,ENE,64,0.0,1.0,27,0.00,,CLR,0.00,VWS V14.00,2013-05-01 18:29:00,
2013-05-01 14:34:00,70.3,33.8,30.34,East,86,3.0,3.0,26,0.00,,CLR,0.00,VWS V14.00,2013-05-01 18:34:00,
2013-05-01 14:39:00,70.1,33.7,30.34,SW,221,1.0,4.0,26,0.00,,CLR,0.00,VWS V14.00,2013-05-01 18:39:00,
2013-05-01 14:44:00,70.1,34.6,30.34,SSW,202,2.0,3.0,27,0.00,,CLR,0.00,VWS V14.00,2013-05-01 18:44:00,
2013-05-01 14:49:00,70.3,38.3,30.33,SW,236,2.0,6.0,31,0.00,,CLR,0.00,VWS V14.00,2013-05-01 18:49:00,
2013-05-01 14:54:00,70.6,37.7,30.33,SW,217,3.0,6.0,30,0.00,,CLR,0.00,VWS V14.00,2013-05-01 18:54:00,
2013-05-01 14:59:00,70.3,36.6,30.33,SSW,205,1.0,3.0,29,0.00,,CLR,0.00,VWS V14.00,2013-05-01 18:59:00,
2013-05-01 15:04:00,70.8,41.8,30.33,SSW,210,4.0,4.0,35,0.00,,CLR,0.00,VWS V14.00,2013-05-01 19:04:00,
2013-05-01 15:09:00,70.3,37.4,30.33,ENE,78,1.0,3.0,30,0.00,,CLR,0.00,VWS V14.00,2013-05-01 19:09:00,
2013-05-01 15:14:00,70.3,38.3,30.33,SE,136,1.0,4.0,31,0.00,,CLR,0.00,VWS V14.00,2013-05-01 19:14:00,
2013-05-01 15:19:00,70.8,37.9,30.33,SSE,163,3.0,7.0,30,0.00,,CLR,0.00,VWS V14.00,2013-05-01 19:19:00,
2013-05-01 15:24:00,70.3,38.3,30.33,South,180,1.0,4.0,31,0.00,,CLR,0.00,VWS V14.00,2013-05-01 19:24:00,
2013-05-01 15:29:00,69.8,40.9,30.33,SSW,209,1.0,3.0,35,0.00,,CLR,0.00,VWS V14.00,2013-05-01 19:29:00,
2013-05-01 15:34:00,70.3,40.6,30.33,West,259,0.0,1.0,34,0.00,,CLR,0.00,VWS V14.00,2013-05-01 19:34:00,
2013-05-01 15:39:00,70.3,39.9,30.33,SE,138,5.0,6.0,33,0.00,,CLR,0.00,VWS V14.00,2013-05-01 19:39:00,
2013-05-01 15:44:00,70.3,40.6,30.33,WSW,242,0.0,3.0,34,0.00,,CLR,0.00,VWS V14.00,2013-05-01 19:44:00,
2013-05-01 15:49:00,70.1,40.5,30.32,SSW,206,2.0,7.0,34,0.00,,CLR,0.00,VWS V14.00,2013-05-01 19:49:00,
2013-05-01 15:54:00,70.4,41.5,30.32,SE,145,4.0,7.0,35,0.00,,CLR,0.00,VWS V14.00,2013-05-01 19:54:00,
2013-05-01 15:59:00,69.8,38.6,30.32,WSW,257,5.0,5.0,32,0.00,,CLR,0.00,VWS V14.00,2013-05-01 19:59:00,
2013-05-01 16:04:00,70.3,41.4,30.33,SSW,211,2.0,2.0,35,0.00,,CLR,0.00,VWS V14.00,2013-05-01 20:04:00,
2013-05-01 16:09:00,69.8,38.6,30.33,WSW,256,4.0,6.0,32,0.00,,CLR,0.00,VWS V14.00,2013-05-01 20:09:00,
2013-05-01 16:14:00,69.4,39.8,30.33,East,86,0.0,1.0,34,0.00,,CLR,0.00,VWS V14.00,2013-05-01 20:14:00,
2013-05-01 16:19:00,69.4,40.6,30.33,SE,146,7.0,7.0,35,0.00,,CLR,0.00,VWS V14.00,2013-05-01 20:19:00,
2013-05-01 16:24:00,69.3,39.8,30.33,SW,228,2.0,4.0,34,0.00,,CLR,0.00,VWS V14.00,2013-05-01 20:24:00,
2013-05-01 16:29:00,69.3,40.5,30.33,ESE,110,2.0,3.0,35,0.00,,CLR,0.00,VWS V14.00,2013-05-01 20:29:00,
2013-05-01 16:34:00,68.6,40.6,30.33,SE,138,1.0,4.0,36,0.00,,CLR,0.00,VWS V14.00,2013-05-01 20:34:00,
2013-05-01 16:39:00,68.6,40.6,30.33,SW,229,0.0,5.0,36,0.00,,CLR,0.00,VWS V14.00,2013-05-01 20:39:00,
2013-05-01 16:44:00,68.8,40.1,30.33,SW,232,1.0,2.0,35,0.00,,CLR,0.00,VWS V14.00,2013-05-01 20:44:00,
2013-05-01 16:49:00,68.9,40.2,30.33,WSW,238,5.0,5.0,35,0.00,,CLR,0.00,VWS V14.00,2013-05-01 20:49:00,
2013-05-01 16:54:00,68.8,39.3,30.33,SE,126,3.0,6.0,34,0.00,,CLR,0.00,VWS V14.00,2013-05-01 20:54:00,
2013-05-01 16:59:00,68.4,40.4,30.33,SE,141,2.0,3.0,36,0.00,,CLR,0.00,VWS V14.00,2013-05-01 20:59:00,
2013-05-01 17:04:00,68.1,40.9,30.34,South,188,1.0,2.0,37,0.00,,CLR,0.00,VWS V14.00,2013-05-01 21:04:00,
2013-05-01 17:09:00,68.1,40.2,30.34,SSW,210,1.0,4.0,36,0.00,,CLR,0.00,VWS V14.00,2013-05-01 21:09:00,
2013-05-01 17:14:00,67.8,40.6,30.34,WSW,241,1.0,4.0,37,0.00,,CLR,0.00,VWS V14.00,2013-05-01 21:14:00,
2013-05-01 17:19:00,67.6,40.4,30.34,South,175,1.0,3.0,37,0.00,,CLR,0.00,VWS V14.00,2013-05-01 21:19:00,
2013-05-01 17:24:00,67.4,40.2,30.34,East,82,5.0,10.0,37,0.00,,CLR,0.00,VWS V14.00,2013-05-01 21:24:00,
2013-05-01 17:29:00,67.3,40.2,30.34,West,261,0.0,2.0,37,0.00,,CLR,0.00,VWS V14.00,2013-05-01 21:29:00,
2013-05-01 17:34:00,67.3,40.8,30.34,SSE,161,2.0,5.0,38,0.00,,CLR,0.00,VWS V14.00,2013-05-01 21:34:00,
2013-05-01 17:39:00,66.9,40.5,30.34,SSE,147,2.0,5.0,38,0.00,,CLR,0.00,VWS V14.00,2013-05-01 21:39:00,
2013-05-01 17:44:00,66.6,40.9,30.34,SE,134,0.0,3.0,39,0.00,,CLR,0.00,VWS V14.00,2013-05-01 21:44:00,
2013-05-01 17:49:00,66.3,40.0,30.35,ENE,77,2.0,6.0,38,0.00,,CLR,0.00,VWS V14.00,2013-05-01 21:49:00,
2013-05-01 17:54:00,66.3,40.6,30.35,SE,138,0.0,4.0,39,0.00,,CLR,0.00,VWS V14.00,2013-05-01 21:54:00,
2013-05-01 17:59:00,66.4,42.0,30.35,SSE,148,4.0,4.0,41,0.00,,CLR,0.00,VWS V14.00,2013-05-01 21:59:00,
2013-05-01 18:04:00,66.1,40.5,30.35,SE,140,3.0,5.0,39,0.00,,CLR,0.00,VWS V14.00,2013-05-01 22:04:00,
2013-05-01 18:09:00,66.0,41.0,30.35,SW,227,2.0,3.0,40,0.00,,CLR,0.00,VWS V14.00,2013-05-01 22:09:00,
2013-05-01 18:14:00,65.6,40.0,30.35,East,101,4.0,6.0,39,0.00,,CLR,0.00,VWS V14.00,2013-05-01 22:14:00,
2013-05-01 18:19:00,65.5,39.9,30.36,SE,130,2.0,11.0,39,0.00,,CLR,0.00,VWS V14.00,2013-05-01 22:19:00,
2013-05-01 18:24:00,65.0,40.8,30.36,SSE,156,1.0,2.0,41,0.00,,CLR,0.00,VWS V14.00,2013-05-01 22:24:00,
2013-05-01 18:29:00,65.0,40.8,30.36,SSE,158,2.0,3.0,41,0.00,,CLR,0.00,VWS V14.00,2013-05-01 22:29:00,
2013-05-01 18:34:00,64.8,40.6,30.36,SE,129,3.0,3.0,41,0.00,,CLR,0.00,VWS V14.00,2013-05-01 22:34:00,
2013-05-01 18:39:00,64.8,41.2,30.36,ESE,119,2.0,2.0,42,0.00,,CLR,0.00,VWS V14.00,2013-05-01 22:39:00,
2013-05-01 18:44:00,64.5,40.3,30.36,NE,53,2.0,3.0,41,0.00,,CLR,0.00,VWS V14.00,2013-05-01 22:44:00,
2013-05-01 18:49:00,64.3,40.7,30.36,South,169,1.0,2.0,42,0.00,,CLR,0.00,VWS V14.00,2013-05-01 22:49:00,
2013-05-01 18:54:00,64.2,40.7,30.36,ESE,119,0.0,1.0,42,0.00,,CLR,0.00,VWS V14.00,2013-05-01 22:54:00,
2013-05-01 18:59:00,64.0,40.5,30.36,ESE,109,2.0,4.0,42,0.00,,CLR,0.00,VWS V14.00,2013-05-01 22:59:00,
2013-05-01 19:04:00,63.9,40.4,30.37,SSE,161,2.0,3.0,42,0.00,,CLR,0.00,VWS V14.00,2013-05-01 23:04:00,
2013-05-01 19:09:00,63.5,40.0,30.37,NE,56,1.0,2.0,42,0.00,,CLR,0.00,VWS V14.00,2013-05-01 23:09:00,
2013-05-01 19:14:00,63.2,39.8,30.37,SE,130,4.0,4.0,42,0.00,,CLR,0.00,VWS V14.00,2013-05-01 23:14:00,
2013-05-01 19:19:00,62.9,39.5,30.37,SSE,153,1.0,4.0,42,0.00,,CLR,0.00,VWS V14.00,2013-05-01 23:19:00,
2013-05-01 19:24:00,62.4,39.0,30.37,ESE,117,3.0,6.0,42,0.00,,CLR,0.00,VWS V14.00,2013-05-01 23:24:00,
2013-05-01 19:29:00,62.0,38.7,30.37,SE,143,2.0,5.0,42,0.00,,CLR,0.00,VWS V14.00,2013-05-01 23:29:00,
2013-05-01 19:34:00,61.6,38.3,30.37,SE,130,1.0,3.0,42,0.00,,CLR,0.00,VWS V14.00,2013-05-01 23:34:00,
2013-05-01 19:39:00,61.3,38.0,30.37,South,169,2.0,6.0,42,0.00,,CLR,0.00,VWS V14.00,2013-05-01 23:39:00,
2013-05-01 19:44:00,61.0,38.4,30.37,ESE,107,1.0,3.0,43,0.00,,CLR,0.00,VWS V14.00,2013-05-01 23:44:00,
2013-05-01 19:49:00,60.7,38.7,30.38,SE,138,3.0,5.0,44,0.00,,CLR,0.00,VWS V14.00,2013-05-01 23:49:00,
2013-05-01 19:54:00,60.2,38.2,30.38,ENE,65,1.0,5.0,44,0.00,,CLR,0.00,VWS V14.00,2013-05-01 23:54:00,
2013-05-01 19:59:00,59.8,38.4,30.38,SE,124,2.0,3.0,45,0.00,,CLR,0.00,VWS V14.00,2013-05-01 23:59:00,
2013-05-01 20:04:00,59.5,38.7,30.38,ENE,63,2.0,3.0,46,0.00,,CLR,0.00,VWS V14.00,2013-05-02 00:04:00,
2013-05-01 20:09:00,59.0,38.8,30.38,East,93,2.0,6.0,47,0.00,,CLR,0.00,VWS V14.00,2013-05-02 00:09:00,
2013-05-01 20:14:00,58.7,39.1,30.38,SE,125,1.0,3.0,48,0.00,,CLR,0.00,VWS V14.00,2013-05-02 00:14:00,
2013-05-01 20:19:00,58.4,39.3,30.38,SE,130,1.0,4.0,49,0.00,,CLR,0.00,VWS V14.00,2013-05-02 00:19:00,
2013-05-01 20:24:00,58.1,39.1,30.38,ESE,106,0.0,2.0,49,0.00,,CLR,0.00,VWS V14.00,2013-05-02 00:24:00,
2013-05-01 20:29:00,57.8,39.3,30.38,SE,134,1.0,4.0,50,0.00,,CLR,0.00,VWS V14.00,2013-05-02 00:29:00,
2013-05-01 20:34:00,57.6,39.6,30.38,ESE,120,1.0,2.0,51,0.00,,CLR,0.00,VWS V14.00,2013-05-02 00:34:00,
2013-05-01 20:39:00,57.3,39.8,30.38,SE,131,0.0,4.0,52,0.00,,CLR,0.00,VWS V14.00,2013-05-02 00:39:00,
2013-05-01 20:44:00,57.0,40.1,30.38,SE,126,1.0,2.0,53,0.00,,CLR,0.00,VWS V14.00,2013-05-02 00:44:00,
2013-05-01 20:49:00,56.9,40.4,30.39,South,173,2.0,2.0,54,0.00,,CLR,0.00,VWS V14.00,2013-05-02 00:49:00,
2013-05-01 20:54:00,56.6,40.2,30.39,ESE,114,1.0,1.0,54,0.00,,CLR,0.00,VWS V14.00,2013-05-02 00:54:00,
2013-05-01 20:59:00,56.5,40.5,30.39,ESE,119,1.0,2.0,55,0.00,,CLR,0.00,VWS V14.00,2013-05-02 00:59:00,
2013-05-01 21:04:00,56.2,40.7,30.40,SE,144,2.0,4.0,56,0.00,,CLR,0.00,VWS V14.00,2013-05-02 01:04:00,
2013-05-01 21:09:00,56.0,41.0,30.40,ESE,115,0.0,3.0,57,0.00,,CLR,0.00,VWS V14.00,2013-05-02 01:09:00,
2013-05-01 21:14:00,55.7,40.7,30.40,SE,130,1.0,2.0,57,0.00,,CLR,0.00,VWS V14.00,2013-05-02 01:14:00,
2013-05-01 21:19:00,55.6,41.1,30.40,SSE,148,1.0,2.0,58,0.00,,CLR,0.00,VWS V14.00,2013-05-02 01:19:00,
2013-05-01 21:24:00,55.3,41.2,30.40,SSE,166,0.0,2.0,59,0.00,,CLR,0.00,VWS V14.00,2013-05-02 01:24:00,
2013-05-01 21:29:00,55.1,41.5,30.40,SSE,161,2.0,3.0,60,0.00,,CLR,0.00,VWS V14.00,2013-05-02 01:29:00,
2013-05-01 21:34:00,54.8,41.2,30.40,SE,139,1.0,2.0,60,0.00,,CLR,0.00,VWS V14.00,2013-05-02 01:34:00,
2013-05-01 21:39:00,54.7,41.1,30.40,SE,124,1.0,1.0,60,0.00,,CLR,0.00,VWS V14.00,2013-05-02 01:39:00,
2013-05-01 21:44:00,54.5,40.9,30.40,East,96,1.0,1.0,60,0.00,,CLR,0.00,VWS V14.00,2013-05-02 01:44:00,
2013-05-01 21:49:00,54.2,40.6,30.41,East,79,2.0,3.0,60,0.00,,CLR,0.00,VWS V14.00,2013-05-02 01:49:00,
2013-05-01 21:54:00,53.9,39.9,30.41,SE,133,5.0,5.0,59,0.00,,CLR,0.00,VWS V14.00,2013-05-02 01:54:00,
2013-05-01 21:59:00,53.8,39.8,30.41,ENE,74,2.0,3.0,59,0.00,,CLR,0.00,VWS V14.00,2013-05-02 01:59:00,
2013-05-01 22:04:00,53.6,39.2,30.41,ENE,71,2.0,4.0,58,0.00,,CLR,0.00,VWS V14.00,2013-05-02 02:04:00,
2013-05-01 22:09:00,53.5,39.1,30.41,East,98,2.0,2.0,58,0.00,,CLR,0.00,VWS V14.00,2013-05-02 02:09:00,
2013-05-01 22:14:00,53.3,38.5,30.41,SE,126,0.0,0.0,57,0.00,,CLR,0.00,VWS V14.00,2013-05-02 02:14:00,
2013-05-01 22:19:00,53.2,38.4,30.41,SE,126,0.0,0.0,57,0.00,,CLR,0.00,VWS V14.00,2013-05-02 02:19:00,
2013-05-01 22:24:00,53.2,38.4,30.41,SE,126,0.0,0.0,57,0.00,,CLR,0.00,VWS V14.00,2013-05-02 02:24:00,
2013-05-01 22:29:00,53.1,39.2,30.41,SE,126,0.0,1.0,59,0.00,,CLR,0.00,VWS V14.00,2013-05-02 02:29:00,
2013-05-01 22:34:00,52.9,39.0,30.41,SE,126,0.0,1.0,59,0.00,,CLR,0.00,VWS V14.00,2013-05-02 02:34:00,
2013-05-01 22:39:00,52.8,38.9,30.41,SE,126,0.0,0.0,59,0.00,,CLR,0.00,VWS V14.00,2013-05-02 02:39:00,
2013-05-01 22:44:00,52.5,38.6,30.41,SE,126,0.0,0.0,59,0.00,,CLR,0.00,VWS V14.00,2013-05-02 02:44:00,
2013-05-01 22:49:00,52.2,38.8,30.41,SE,126,1.0,1.0,60,0.00,,CLR,0.00,VWS V14.00,2013-05-02 02:49:00,
2013-05-01 22:54:00,51.9,38.5,30.41,SE,126,0.0,1.0,60,0.00,,CLR,0.00,VWS V14.00,2013-05-02 02:54:00,
2013-05-01 22:59:00,51.6,38.6,30.41,SE,126,1.0,2.0,61,0.00,,CLR,0.00,VWS V14.00,2013-05-02 02:59:00,
2013-05-01 23:04:00,51.3,38.7,30.41,SE,125,0.0,2.0,62,0.00,,CLR,0.00,VWS V14.00,2013-05-02 03:04:00,
2013-05-01 23:09:00,51.1,39.0,30.41,SE,125,0.0,1.0,63,0.00,,CLR,0.00,VWS V14.00,2013-05-02 03:09:00,
2013-05-01 23:14:00,51.0,38.9,30.41,SE,125,2.0,2.0,63,0.00,,CLR,0.00,VWS V14.00,2013-05-02 03:14:00,
2013-05-01 23:19:00,50.8,39.1,30.40,ESE,121,0.0,1.0,64,0.00,,CLR,0.00,VWS V14.00,2013-05-02 03:19:00,
2013-05-01 23:24:00,50.7,39.0,30.40,ESE,121,1.0,2.0,64,0.00,,CLR,0.00,VWS V14.00,2013-05-02 03:24:00,
2013-05-01 23:29:00,50.7,39.0,30.40,ESE,121,0.0,0.0,64,0.00,,CLR,0.00,VWS V14.00,2013-05-02 03:29:00,
2013-05-01 23:34:00,50.5,39.2,30.40,ESE,121,0.0,0.0,65,0.00,,CLR,0.00,VWS V14.00,2013-05-02 03:34:00,
2013-05-01 23:39:00,50.5,39.2,30.40,ESE,121,0.0,0.0,65,0.00,,CLR,0.00,VWS V14.00,2013-05-02 03:39:00,
2013-05-01 23:44:00,50.4,39.1,30.40,ESE,121,0.0,0.0,65,0.00,,CLR,0.00,VWS V14.00,2013-05-02 03:44:00,
2013-05-01 23:49:00,50.2,39.3,30.40,ESE,121,0.0,1.0,66,0.00,,CLR,0.00,VWS V14.00,2013-05-02 03:49:00,
2013-05-01 23:54:00,50.1,39.2,30.40,ESE,121,0.0,0.0,66,0.00,,CLR,0.00,VWS V14.00,2013-05-02 03:54:00,
2013-05-01 23:59:00,49.9,39.4,30.40,ESE,121,1.0,1.0,67,0.00,,CLR,0.00,VWS V14.00,2013-05-02 03:59:00,